Tracking 35275 objects as of 8-Sep-2026
HD Live streaming from Space Station
objects crossing your sky now

STARLINK-36743

Track STARLINK-36743 now!
10-day predictions
STARLINK-36743 is classified as:


NORAD ID: 67876
Int'l Code: 2026-034AC
Launch date: February 20, 2026
Source: United States (US)
Launch site: AIR FORCE EASTERN TEST RANGE (AFETR)
Your satellite tracking list
Your tracking list is empty




NASA's NSSDC Master Catalog

Two Line Element Set (TLE):
1 67876U 26034AC  26250.97386768  .00020857  00000-0  62642-3 0  9993
2 67876  53.1585  76.1727 0001062  84.2269 275.8855 15.34415177 31960
Source of the keplerian elements: AFSPC